Content
SEND FEEDBACK

Daily
Averages
Monthly
Summary
United States of America

RAPID CITY, SOUTH DAKOTA


Home > North America > United States > South Dakota
Elevation: 3162 feet     Latitude: 44 03N     Longitude: 103 04W

WEATHER
 
SELECT A DAY
Number of Records: 202,741;   Date Range: 1/1/95 - 9/29/14
 
SHARE

PRINT THIS DATA

[ ← Previous Day ]
WEATHER ALMANAC - AUGUST 7, 2014
[ Next Day → ]
[ °C ]   °F
Weather ElementAverageHighLow
Temperature69.2 °F82.9 °F (4:52 pm)64 °F (12:52 am)
Dewpoint62.8 °F64.9 °F (4:52 pm)57.9 °F (4:52 pm)
Humidity82.3 %100 % (3:52 am)42 % (4:52 pm)
Barometer29.97 in30.05 in (8:42 am)29.89 in (4:52 pm)
Wind Speed5.9 mph10.4 mph (12:13 am)
Weather ElementAverage
Visibility6.5 mi
Wind DirectionESE (122.6 °)

Weather ElementTotal
Precipitation---
Cooling Degree Days8.5 (Base 65)
Growing Degree Days23.5 (Base 50)
Averaged from 34 records on August 7, 2014
WEATHER CONDITIONS BREAKOUT
WIND DIRECTION BREAKOUT
WEATHER BY HOUR - AUGUST 7, 2014
[ °C ]   °F
Local TimeTemperatureDewpointHumidityBarometerVisibilityWind DirectionWind SpeedGust SpeedPrecipitationEventsConditions
12:13 AM64.0 °F63.0 °F96 %30.05 in6.0 miSE (130°)10.4 mphOvercast
12:52 AM64.0 °F63.0 °F96 %29.98 in4.0 miSE (130°)6.9 mphOvercast
1:47 AM64.4 °F62.6 °F94 %30.04 in1.8 miSSE (150°)9.2 mphOvercast
1:52 AM64.0 °F63.0 °F96 %29.98 in1.0 miSSE (160°)9.2 mphMist
2:02 AM64.0 °F63.0 °F96 %30.03 in0.8 miSSE (150°)8.1 mphMist
2:52 AM64.0 °F63.0 °F96 %29.97 in0.2 miSSE (160°)10.4 mphFogFog
3:23 AM64.0 °F63.0 °F96 %30.03 in0.2 miSSE (160°)6.9 mphFogFog
3:45 AM64.0 °F63.0 °F96 %30.03 in0.5 miSouth (170°)6.9 mphFogFog
3:52 AM64.0 °F64.0 °F100 %29.97 in0.5 miSouth (170°)6.9 mphFogFog
4:32 AM64.0 °F63.0 °F96 %30.02 in0.2 miSSE (160°)6.9 mphFogFog
4:52 AM64.0 °F63.0 °F96 %29.97 in0.2 miSouth (170°)4.6 mphFogFog
5:09 AM64.0 °F63.0 °F96 %30.02 in0.5 miSouth (190°)3.5 mphFogFog
5:31 AM64.0 °F63.0 °F96 %30.03 in2.5 miSouth (180°)5.8 mphOvercast
5:38 AM64.0 °F63.0 °F96 %30.03 in6.0 miSouth (170°)6.9 mphOvercast
5:52 AM64.0 °F63.0 °F96 %29.97 in6.0 miSouth (170°)4.6 mphOvercast
6:52 AM64.0 °F63.0 °F96 %29.97 in10.0 miSSW (210°)3.5 mphOvercast
7:52 AM64.9 °F63.0 °F93 %29.98 in10.0 miSSW (200°)4.6 mphMostly Cloudy
8:30 AM66.9 °F63.0 °F87 %30.04 in10.0 miSE (140°)5.8 mphMostly Cloudy
8:52 AM69.1 °F63.0 °F81 %29.97 in10.0 miESE (120°)3.5 mphPartly Cloudy
9:52 AM71.1 °F64.0 °F78 %29.97 in10.0 miVariable4.6 mphClear
10:52 AM72.0 °F64.9 °F78 %29.97 in10.0 miSE (140°)5.8 mphClear
11:52 AM75.9 °F64.0 °F67 %29.95 in10.0 miVariable4.6 mphPartly Cloudy
12:52 PM78.1 °F64.9 °F64 %29.94 in10.0 miVariable4.6 mphClear
1:52 PM75.9 °F64.9 °F69 %29.94 in10.0 miSE (130°)6.9 mphClear
2:52 PM77.0 °F64.0 °F64 %29.92 in10.0 miSSE (150°)4.6 mphMostly Cloudy
3:52 PM82.0 °F61.0 °F49 %29.90 in10.0 miESE (120°)5.8 mphClear
4:52 PM82.9 °F57.9 °F42 %29.89 in10.0 miESE (110°)4.6 mphClear
5:52 PM82.0 °F57.9 °F44 %29.89 in10.0 miEast (100°)3.5 mphClear
6:52 PM80.1 °F62.1 °F54 %29.89 in10.0 miNE (50°)4.6 mphScattered Clouds
7:52 PM73.9 °F63.0 °F68 %29.91 in10.0 miEast (80°)9.2 mphClear
8:52 PM71.1 °F63.0 °F75 %29.93 in10.0 miEast (100°)9.2 mphClear
9:52 PM69.1 °F63.0 °F81 %29.95 in10.0 miEast (100°)6.9 mphClear
10:52 PM68.0 °F62.1 °F81 %29.95 in10.0 miCalmScattered Clouds
11:52 PM66.9 °F62.1 °F84 %29.96 in10.0 miCalmClear
Hourly data recorded from KRAP, located miles away from Rapid City, South Dakota







STORIES FROM OUR PARTNERS